Time,TemperatureF,DewpointF,PressureIn,WindDirection,WindDirectionDegrees,WindSpeedMPH,WindSpeedGustMPH,Humidity,HourlyPrecipIn,Conditions,Clouds,dailyrainin,SoftwareType,DateUTC
2013-01-19 00:02:00,38.0,29.0,30.30,SSW,208,4.0,-999.0,69,-99.99,,,-99.99,,2013-01-19 06:02:00,
2013-01-19 00:12:00,38.0,29.0,30.30,SSW,208,4.0,-999.0,69,-99.99,,,-99.99,,2013-01-19 06:12:00,
2013-01-19 00:22:00,38.0,29.0,30.29,South,184,5.0,-999.0,71,-99.99,,,-99.99,,2013-01-19 06:22:00,
2013-01-19 00:32:00,38.0,29.0,30.29,SSW,192,5.0,-999.0,71,-99.99,,,-99.99,,2013-01-19 06:32:00,
2013-01-19 00:43:00,38.0,29.0,30.29,SSW,192,5.0,-999.0,71,-99.99,,,-99.99,,2013-01-19 06:43:00,
2013-01-19 00:53:00,37.0,29.0,30.29,South,179,4.0,-999.0,72,-99.99,,,-99.99,,2013-01-19 06:53:00,
2013-01-19 01:02:00,37.0,28.0,30.29,South,175,3.0,-999.0,71,-99.99,,,-99.99,,2013-01-19 07:02:00,
2013-01-19 01:12:00,37.0,28.0,30.29,South,175,3.0,-999.0,71,-99.99,,,-99.99,,2013-01-19 07:12:00,
2013-01-19 01:22:00,36.0,28.0,30.29,SSW,198,4.0,-999.0,71,-99.99,,,-99.99,,2013-01-19 07:22:00,
2013-01-19 01:32:00,36.0,28.0,30.28,SSW,208,5.0,-999.0,71,-99.99,,,-99.99,,2013-01-19 07:32:00,
2013-01-19 01:42:00,36.0,28.0,30.28,SSW,208,5.0,-999.0,71,-99.99,,,-99.99,,2013-01-19 07:42:00,
2013-01-19 01:52:00,36.0,28.0,30.28,South,186,4.0,-999.0,71,-99.99,,,-99.99,,2013-01-19 07:52:00,
2013-01-19 02:02:00,36.0,28.0,30.28,SSW,193,4.0,-999.0,71,-99.99,,,-99.99,,2013-01-19 08:02:00,
2013-01-19 02:12:00,36.0,28.0,30.28,SSW,193,4.0,-999.0,71,-99.99,,,-99.99,,2013-01-19 08:12:00,
2013-01-19 02:22:00,37.0,28.0,30.29,SSE,165,4.0,-999.0,70,-99.99,,,-99.99,,2013-01-19 08:22:00,
2013-01-19 02:32:00,37.0,28.0,30.29,SSE,153,5.0,-999.0,69,-99.99,,,-99.99,,2013-01-19 08:32:00,
2013-01-19 02:42:00,37.0,28.0,30.29,SSE,153,5.0,-999.0,69,-99.99,,,-99.99,,2013-01-19 08:42:00,
2013-01-19 02:53:00,37.0,28.0,30.28,South,188,4.0,-999.0,70,-99.99,,,-99.99,,2013-01-19 08:53:00,
2013-01-19 03:02:00,37.0,28.0,30.28,SSW,200,4.0,-999.0,71,-99.99,,,-99.99,,2013-01-19 09:02:00,
2013-01-19 03:12:00,37.0,28.0,30.28,SSW,200,4.0,-999.0,71,-99.99,,,-99.99,,2013-01-19 09:12:00,
2013-01-19 03:22:00,37.0,28.0,30.28,South,176,6.0,-999.0,71,-99.99,,,-99.99,,2013-01-19 09:22:00,
2013-01-19 03:32:00,36.0,28.0,30.28,South,170,5.0,-999.0,71,-99.99,,,-99.99,,2013-01-19 09:32:00,
2013-01-19 03:42:00,36.0,28.0,30.28,South,170,5.0,-999.0,71,-99.99,,,-99.99,,2013-01-19 09:42:00,
2013-01-19 03:53:00,36.0,28.0,30.27,South,184,5.0,-999.0,72,-99.99,,,-99.99,,2013-01-19 09:53:00,
2013-01-19 04:02:00,36.0,28.0,30.27,SSE,167,5.0,-999.0,72,-99.99,,,-99.99,,2013-01-19 10:02:00,
2013-01-19 04:12:00,36.0,28.0,30.27,SSE,167,5.0,-999.0,72,-99.99,,,-99.99,,2013-01-19 10:12:00,
2013-01-19 04:22:00,35.0,28.0,30.26,South,169,4.0,-999.0,74,-99.99,,,-99.99,,2013-01-19 10:22:00,
2013-01-19 04:32:00,35.0,28.0,30.26,SSE,166,5.0,-999.0,74,-99.99,,,-99.99,,2013-01-19 10:32:00,
2013-01-19 04:42:00,35.0,28.0,30.26,SSE,166,5.0,-999.0,74,-99.99,,,-99.99,,2013-01-19 10:42:00,
2013-01-19 04:53:00,36.0,29.0,30.25,South,170,5.0,-999.0,74,-99.99,,,-99.99,,2013-01-19 10:53:00,
2013-01-19 05:02:00,35.0,28.0,30.25,South,182,5.0,-999.0,74,-99.99,,,-99.99,,2013-01-19 11:02:00,
2013-01-19 05:12:00,35.0,28.0,30.25,South,182,5.0,-999.0,74,-99.99,,,-99.99,,2013-01-19 11:12:00,
2013-01-19 06:48:00,35.0,28.0,30.26,SSE,163,1.0,-999.0,74,-99.99,,,-99.99,,2013-01-19 12:48:00,
2013-01-19 07:03:00,34.0,27.0,30.26,South,169,2.0,-999.0,75,-99.99,,,-99.99,,2013-01-19 13:03:00,
2013-01-19 07:12:00,34.0,27.0,30.26,South,169,2.0,-999.0,75,-99.99,,,-99.99,,2013-01-19 13:12:00,
2013-01-19 07:22:00,34.0,27.0,30.26,South,175,2.0,-999.0,76,-99.99,,,-99.99,,2013-01-19 13:22:00,
2013-01-19 07:33:00,34.0,27.0,30.26,South,176,0.0,-999.0,76,-99.99,,,-99.99,,2013-01-19 13:33:00,
2013-01-19 07:42:00,34.0,27.0,30.26,South,176,0.0,-999.0,76,-99.99,,,-99.99,,2013-01-19 13:42:00,
2013-01-19 07:53:00,34.0,28.0,30.25,SSE,168,2.0,-999.0,77,-99.99,,,-99.99,,2013-01-19 13:53:00,
2013-01-19 08:02:00,35.0,29.0,30.25,SSW,192,3.0,-999.0,77,-99.99,,,-99.99,,2013-01-19 14:02:00,
2013-01-19 08:12:00,35.0,29.0,30.25,SSW,192,3.0,-999.0,77,-99.99,,,-99.99,,2013-01-19 14:12:00,
2013-01-19 08:23:00,37.0,29.0,30.25,South,176,4.0,-999.0,74,-99.99,,,-99.99,,2013-01-19 14:23:00,
2013-01-19 08:33:00,38.0,30.0,30.25,South,175,4.0,-999.0,73,-99.99,,,-99.99,,2013-01-19 14:33:00,
2013-01-19 08:42:00,38.0,30.0,30.25,South,175,4.0,-999.0,73,-99.99,,,-99.99,,2013-01-19 14:42:00,
2013-01-19 08:53:00,39.0,30.0,30.25,SSW,194,6.0,-999.0,70,-99.99,,,-99.99,,2013-01-19 14:53:00,
2013-01-19 09:03:00,40.0,30.0,30.25,South,180,5.0,-999.0,68,-99.99,,,-99.99,,2013-01-19 15:03:00,
2013-01-19 09:12:00,40.0,30.0,30.25,South,180,5.0,-999.0,68,-99.99,,,-99.99,,2013-01-19 15:12:00,
2013-01-19 09:23:00,41.0,31.0,30.26,SSE,159,7.0,-999.0,67,-99.99,,,-99.99,,2013-01-19 15:23:00,
2013-01-19 09:33:00,42.0,32.0,30.26,South,182,6.0,-999.0,67,-99.99,,,-99.99,,2013-01-19 15:33:00,
2013-01-19 09:43:00,42.0,32.0,30.26,South,182,6.0,-999.0,67,-99.99,,,-99.99,,2013-01-19 15:43:00,
2013-01-19 09:53:00,43.0,32.0,30.26,South,191,4.0,-999.0,66,-99.99,,,-99.99,,2013-01-19 15:53:00,
2013-01-19 10:03:00,44.0,33.0,30.26,SSW,207,6.0,-999.0,66,-99.99,,,-99.99,,2013-01-19 16:03:00,
2013-01-19 10:13:00,44.0,33.0,30.26,SSW,207,6.0,-999.0,66,-99.99,,,-99.99,,2013-01-19 16:13:00,
2013-01-19 10:23:00,46.0,35.0,30.26,SSE,159,8.0,-999.0,64,-99.99,,,-99.99,,2013-01-19 16:23:00,
2013-01-19 10:33:00,47.0,34.0,30.26,SSW,212,9.0,-999.0,60,-99.99,,,-99.99,,2013-01-19 16:33:00,
2013-01-19 10:43:00,47.0,34.0,30.26,SSW,212,9.0,-999.0,60,-99.99,,,-99.99,,2013-01-19 16:43:00,
2013-01-19 10:54:00,48.0,34.0,30.25,SSW,213,10.0,-999.0,59,-99.99,,,-99.99,,2013-01-19 16:54:00,
2013-01-19 11:02:00,48.0,34.0,30.24,SW,216,9.0,-999.0,58,-99.99,,,-99.99,,2013-01-19 17:02:00,
2013-01-19 11:28:00,49.0,35.0,30.23,SSW,213,11.0,-999.0,58,-99.99,,,-99.99,,2013-01-19 17:28:00,
2013-01-19 11:35:00,49.0,34.0,30.23,SSW,213,10.0,-999.0,57,-99.99,,,-99.99,,2013-01-19 17:35:00,
2013-01-19 11:47:00,49.0,34.0,30.23,SSW,213,10.0,-999.0,57,-99.99,,,-99.99,,2013-01-19 17:47:00,
2013-01-19 11:54:00,50.0,35.0,30.21,SSE,165,11.0,-999.0,57,-99.99,,,-99.99,,2013-01-19 17:54:00,
2013-01-19 12:09:00,50.0,35.0,30.20,SW,229,12.0,-999.0,56,-99.99,,,-99.99,,2013-01-19 18:09:00,
2013-01-19 12:13:00,52.0,36.0,30.17,SW,214,11.0,-999.0,54,-99.99,,,-99.99,,2013-01-19 18:13:00,
2013-01-19 12:25:00,51.0,35.0,30.18,SW,221,11.0,-999.0,54,-99.99,,,-99.99,,2013-01-19 18:25:00,
2013-01-19 12:34:00,52.0,36.0,30.17,SW,214,11.0,-999.0,54,-99.99,,,-99.99,,2013-01-19 18:34:00,
2013-01-19 12:45:00,52.0,36.0,30.17,SW,214,11.0,-999.0,54,-99.99,,,-99.99,,2013-01-19 18:45:00,
2013-01-19 12:59:00,52.0,36.0,30.17,SW,214,11.0,-999.0,54,-99.99,,,-99.99,,2013-01-19 18:59:00,
2013-01-19 13:06:00,52.0,36.0,30.17,SW,214,11.0,-999.0,54,-99.99,,,-99.99,,2013-01-19 19:06:00,
2013-01-19 14:27:00,55.0,39.0,30.13,WSW,240,8.0,-999.0,54,-99.99,,,-99.99,,2013-01-19 20:27:00,
2013-01-19 14:39:00,55.0,40.0,30.12,SW,228,10.0,-999.0,56,-99.99,,,-99.99,,2013-01-19 20:39:00,
2013-01-19 14:50:00,55.0,40.0,30.12,SW,228,10.0,-999.0,56,-99.99,,,-99.99,,2013-01-19 20:50:00,
2013-01-19 14:58:00,55.0,38.0,30.11,SW,220,8.0,-999.0,53,-99.99,,,-99.99,,2013-01-19 20:58:00,
2013-01-19 15:05:00,56.0,40.0,30.11,SSW,202,7.0,-999.0,54,-99.99,,,-99.99,,2013-01-19 21:05:00,
2013-01-19 15:14:00,56.0,40.0,30.11,SSW,202,7.0,-999.0,54,-99.99,,,-99.99,,2013-01-19 21:14:00,
2013-01-19 15:25:00,56.0,39.0,30.11,SSW,203,10.0,-999.0,53,-99.99,,,-99.99,,2013-01-19 21:25:00,
2013-01-19 15:40:00,56.0,39.0,30.11,SSW,213,7.0,-999.0,53,-99.99,,,-99.99,,2013-01-19 21:40:00,
2013-01-19 16:11:00,56.0,39.0,30.11,SW,215,7.0,-999.0,53,-99.99,,,-99.99,,2013-01-19 22:11:00,
2013-01-19 16:16:00,56.0,39.0,30.11,SW,215,7.0,-999.0,53,-99.99,,,-99.99,,2013-01-19 22:16:00,
2013-01-19 16:25:00,56.0,40.0,30.10,SW,218,5.0,-999.0,54,-99.99,,,-99.99,,2013-01-19 22:25:00,
2013-01-19 16:34:00,55.0,39.0,30.10,SW,218,5.0,-999.0,54,-99.99,,,-99.99,,2013-01-19 22:34:00,
2013-01-19 16:45:00,55.0,39.0,30.10,SW,218,5.0,-999.0,54,-99.99,,,-99.99,,2013-01-19 22:45:00,
2013-01-19 16:58:00,54.0,38.0,30.10,SW,218,6.0,-999.0,55,-99.99,,,-99.99,,2013-01-19 22:58:00,
2013-01-19 17:11:00,54.0,39.0,30.09,SSW,207,4.0,-999.0,56,-99.99,,,-99.99,,2013-01-19 23:11:00,
2013-01-19 17:25:00,52.0,37.0,30.09,SSW,211,5.0,-999.0,57,-99.99,,,-99.99,,2013-01-19 23:25:00,
2013-01-19 17:34:00,52.0,38.0,30.09,SW,229,4.0,-999.0,58,-99.99,,,-99.99,,2013-01-19 23:34:00,
2013-01-19 17:45:00,52.0,38.0,30.09,SW,229,4.0,-999.0,58,-99.99,,,-99.99,,2013-01-19 23:45:00,
2013-01-19 18:07:00,51.0,38.0,30.10,SW,225,3.0,-999.0,60,-99.99,,,-99.99,,2013-01-20 00:07:00,
2013-01-19 18:15:00,51.0,38.0,30.10,SSW,195,3.0,-999.0,60,-99.99,,,-99.99,,2013-01-20 00:15:00,
2013-01-19 18:25:00,50.0,37.0,30.10,SSW,202,4.0,-999.0,61,-99.99,,,-99.99,,2013-01-20 00:25:00,
2013-01-19 18:35:00,50.0,37.0,30.10,SSW,194,3.0,-999.0,61,-99.99,,,-99.99,,2013-01-20 00:35:00,
2013-01-19 18:45:00,50.0,37.0,30.10,SSW,194,3.0,-999.0,61,-99.99,,,-99.99,,2013-01-20 00:45:00,
2013-01-19 18:56:00,49.0,37.0,30.10,SSW,209,4.0,-999.0,62,-99.99,,,-99.99,,2013-01-20 00:56:00,
2013-01-19 19:03:00,49.0,37.0,30.11,SSW,204,3.0,-999.0,62,-99.99,,,-99.99,,2013-01-20 01:03:00,
2013-01-19 19:19:00,49.0,37.0,30.11,SSW,204,3.0,-999.0,62,-99.99,,,-99.99,,2013-01-20 01:19:00,
2013-01-19 19:25:00,48.0,36.0,30.11,SW,215,4.0,-999.0,64,-99.99,,,-99.99,,2013-01-20 01:25:00,
2013-01-19 19:35:00,48.0,36.0,30.11,SSW,192,4.0,-999.0,64,-99.99,,,-99.99,,2013-01-20 01:35:00,
2013-01-19 19:45:00,48.0,36.0,30.11,SSW,192,4.0,-999.0,64,-99.99,,,-99.99,,2013-01-20 01:45:00,
2013-01-19 20:03:00,47.0,36.0,30.12,SSW,213,3.0,-999.0,65,-99.99,,,-99.99,,2013-01-20 02:03:00,
2013-01-19 20:14:00,46.0,35.0,30.11,South,191,2.0,-999.0,66,-99.99,,,-99.99,,2013-01-20 02:14:00,
2013-01-19 20:25:00,46.0,36.0,30.13,SSW,213,3.0,-999.0,68,-99.99,,,-99.99,,2013-01-20 02:25:00,
2013-01-19 20:35:00,46.0,36.0,30.13,SSW,200,3.0,-999.0,68,-99.99,,,-99.99,,2013-01-20 02:35:00,
2013-01-19 20:44:00,46.0,36.0,30.13,SSW,200,3.0,-999.0,68,-99.99,,,-99.99,,2013-01-20 02:44:00,
2013-01-19 20:58:00,45.0,36.0,30.13,SW,216,4.0,-999.0,70,-99.99,,,-99.99,,2013-01-20 02:58:00,
2013-01-19 21:07:00,46.0,37.0,30.14,SW,221,6.0,-999.0,70,-99.99,,,-99.99,,2013-01-20 03:07:00,
2013-01-19 21:14:00,46.0,37.0,30.14,SW,221,6.0,-999.0,70,-99.99,,,-99.99,,2013-01-20 03:14:00,
2013-01-19 21:24:00,45.0,36.0,30.14,SW,221,7.0,-999.0,71,-99.99,,,-99.99,,2013-01-20 03:24:00,
2013-01-19 21:37:00,45.0,37.0,30.14,SW,222,6.0,-999.0,72,-99.99,,,-99.99,,2013-01-20 03:37:00,
2013-01-19 21:45:00,45.0,37.0,30.14,SW,222,6.0,-999.0,72,-99.99,,,-99.99,,2013-01-20 03:45:00,
2013-01-19 21:57:00,45.0,37.0,30.14,SW,221,7.0,-999.0,72,-99.99,,,-99.99,,2013-01-20 03:57:00,
2013-01-19 22:04:00,44.0,36.0,30.14,SW,221,7.0,-999.0,72,-99.99,,,-99.99,,2013-01-20 04:04:00,
2013-01-19 22:14:00,44.0,36.0,30.14,SW,221,7.0,-999.0,72,-99.99,,,-99.99,,2013-01-20 04:14:00,
2013-01-19 22:25:00,44.0,36.0,30.14,SW,222,8.0,-999.0,72,-99.99,,,-99.99,,2013-01-20 04:25:00,
2013-01-19 22:34:00,44.0,36.0,30.14,SW,217,9.0,-999.0,72,-99.99,,,-99.99,,2013-01-20 04:34:00,
2013-01-19 22:44:00,44.0,36.0,30.14,SW,217,9.0,-999.0,72,-99.99,,,-99.99,,2013-01-20 04:44:00,
2013-01-19 22:56:00,44.0,36.0,30.14,SSW,211,8.0,-999.0,72,-99.99,,,-99.99,,2013-01-20 04:56:00,
2013-01-19 23:03:00,44.0,36.0,30.15,SW,234,7.0,-999.0,72,-99.99,,,-99.99,,2013-01-20 05:03:00,
2013-01-19 23:12:00,44.0,36.0,30.15,SW,234,7.0,-999.0,72,-99.99,,,-99.99,,2013-01-20 05:12:00,
2013-01-19 23:22:00,43.0,35.0,30.14,SW,222,7.0,-999.0,72,-99.99,,,-99.99,,2013-01-20 05:22:00,
2013-01-19 23:32:00,43.0,35.0,30.14,SSW,204,7.0,-999.0,73,-99.99,,,-99.99,,2013-01-20 05:32:00,
2013-01-19 23:42:00,43.0,35.0,30.14,SSW,204,7.0,-999.0,73,-99.99,,,-99.99,,2013-01-20 05:42:00,
2013-01-19 23:53:00,43.0,35.0,30.14,SW,222,5.0,-999.0,73,-99.99,,,-99.99,,2013-01-20 05:53:00,